Regional Weather Roundup
Issued by NWS

Home | Current Version | Previous Version | Graphics & Text | Print | Product List | Glossary Off
Versions: 1 2 3 4 5 6 7 8 9 10 11 12 13 14 15 16 17 18 19 20 21 22 23 24 25 26 27 28 29 30 31 32 33 34 35 36 37 38 39 40 41 42 43 44 45 46 47 48 49 50

000
ASUS43 KTOP 202008
RWRKS

WEATHER ROUNDUP FOR KANSAS
NATIONAL WEATHER SERVICE GOODLAND KS
300 PM CDT SUN APR 20 2014

NOTE:  "FAIR" INDICATES FEW OR NO CLOUDS BELOW 12,000 FEET WITH NO
SIGNIFICANT WEATHER AND/OR OBSTRUCTIONS TO VISIBILITY.

KSZ001>006-013>018-027>032-041>047-202100-
NORTHWEST KANSAS

CITY           SKY/WX    TMP DP  RH WIND       PRES   REMARKS
GOODLAND       CLOUDY    70  49  47 S6        29.98F
HAYS           CLOUDY    73  54  49 S18G24    29.97F
HILL CITY      PTSUNNY   78  49  35 S13       29.94F
RUSSELL        CLOUDY    70  55  59 S16       29.97F
$$

KSZ061>065-074>080-084>089-202100-
SOUTHWEST KANSAS

CITY           SKY/WX    TMP DP  RH WIND       PRES   REMARKS
DODGE CITY     PTSUNNY   77  48  35 S22       29.95F
ELKHART          N/A     74  44  34 SW14        N/A
GARDEN CITY    MOSUNNY   77  46  33 S21G29    29.93F
GREAT BEND     CLOUDY    72  54  53 S18G25    29.99S
LIBERAL        MOSUNNY   79  48  34 S18       29.95F
PRATT          PTSUNNY   72  54  53 S16G22    30.01F
$$

KSZ066>073-081>083-090>101-202100-
SOUTHEAST KANSAS

CITY           SKY/WX    TMP DP  RH WIND       PRES   REMARKS
CHANUTE        LGT RAIN  73  54  51 S15       30.09S
COFFEYVILLE    CLOUDY    74  54  49 S15       30.09F HAZE
HUTCHINSON     CLOUDY    65  59  81 S9        30.03F
MEDICINE LODGE   N/A     71  59  65 SE13      30.00F
NEWTON         CLOUDY    64  54  68 SW14      30.09S
PARSONS        CLOUDY    74  54  49 S12G20    30.10F
WICHITA INTL   LGT RAIN  66  60  81 SE10      30.05F
WICHITA JABRA  LGT RAIN  66  60  81 S9        30.06S
WICHITA MCCONL CLOUDY    66  66 100 SE9       30.06S
WINFIELD       CLOUDY    72  60  66 S12       30.07F
$$

KSZ007>012-019>026-033>040-048>060-102>105-202100-
NORTHEAST KANSAS

CITY           SKY/WX    TMP DP  RH WIND       PRES   REMARKS
CONCORDIA      PTSUNNY   74  51  44 SW17G29   29.99R
EMPORIA        CLOUDY    73  54  51 S15       30.04F
LAWRENCE       CLOUDY    76  54  46 S12       30.04S
MANHATTAN      LGT RAIN  75  55  49 SW16G22   30.00S
OLATHE IND     CLOUDY    76  54  46 S12       30.06F
OLATHE EXE     CLOUDY    75  53  46 S13G23    30.06S
SALINA         CLOUDY    69  56  62 S16       30.02S
TOPEKA BILLARD CLOUDY    77  54  44 S13       30.03S
TOPEKA FORBES  CLOUDY    76  54  46 S13       30.03F
$$



USA.gov is the U.S. government's official web portal to all federal, state and local government web resources and services.